Weather History for Gillette, WY

Change the Weather History Date:

Sunday, March 17, 2013

  Actual Average Record
Temperature  
Mean Temperature 37 °F 35 °F  
Max Temperature 53 °F 48 °F 74 °F (2012)
Min Temperature 20 °F 23 °F -10 °F (1943)
Degree Days  
Heating Degree Days 28 30  
Month to date heating degree days 481 544  
Since 1 July heating degree days 5604 5952  
Cooling Degree Days 0 0  
Month to date cooling degree days 0 0  
Year to date cooling degree days 0 0  
Moisture  
Dew Point 26 °F    
Average Humidity 69    
Maximum Humidity 100    
Minimum Humidity 38    
Precipitation  
Precipitation 0.01 in 0.03 in 0.64 in (2003)
Month to date precipitation 0.12 0.44  
Year to date precipitation 1.25 1.22  
Sea Level Pressure  
Sea Level Pressure 29.60 in    
Wind  
Wind Speed 22 mph (WNW)    
Max Wind Speed 40 mph    
Max Gust Speed 51 mph    
Visibility 7 miles    
Events Fog , Snow    
T = Trace of Precipitation, MM = Missing Value Source: NWS Daily Summary

Daily Weather History Graph

Daily Weather History Graph

Search for Another Location

Airport:

Trip Planner

Search our weather history database for the weather conditions in past years. The results will help you decide how hot, cold, wet, or windy it might be!

Date:

Astronomy

Mar. 17, 2013 Rise Set
Actual Time 7:10 AM MDT 7:11 PM MDT
Civil Twilight 6:41 AM MDT 7:40 PM MDT
Nautical Twilight 6:07 AM MDT 8:14 PM MDT
Astronomical Twilight 5:33 AM MDT 8:48 PM MDT
Moon 10:12 AM MDT (3/17) 12:33 AM MDT (3/17)
Length of Visible Light 12h 58m
Length of Day
12h 00m
Waxing Crescent, 32% of the Moon is Illuminated
Mar 17
Waxing Crescent
Mar 19
First Quarter
Mar 27
Full
Apr 2
Last Quarter
Apr 10
New

Hourly Weather History & Observations

Time (MDT) Temp. Windchill Dew Point Humidity Pressure Visibility Wind Dir Wind Speed Gust Speed Precip Events Conditions
12:53 AM 32.0 °F 19.5 °F 30.9 °F 96% 29.76 in 10.0 mi SSE 21.9 mph 31.1 mph N/A   Overcast
1:28 AM 32.0 °F 18.6 °F 30.2 °F 93% 29.70 in 10.0 mi SSE 25.3 mph 35.7 mph N/A   Overcast
1:53 AM 32.0 °F 18.9 °F 30.0 °F 92% 29.72 in 10.0 mi South 24.2 mph 32.2 mph N/A   Overcast
2:53 AM 32.0 °F 19.8 °F 30.0 °F 92% 29.69 in 10.0 mi SSE 20.7 mph 26.5 mph N/A   Overcast
3:24 AM 30.2 °F 19.3 °F 30.2 °F 100% 29.64 in 10.0 mi SSE 15.0 mph 21.9 mph N/A   Overcast
3:53 AM 30.0 °F 18.3 °F 28.9 °F 96% 29.63 in 10.0 mi SSE 17.3 mph - N/A   Overcast
4:53 AM 30.0 °F 16.0 °F 28.9 °F 96% 29.59 in 10.0 mi SSE 25.3 mph 32.2 mph N/A   Overcast
5:53 AM 28.9 °F 14.3 °F 28.0 °F 96% 29.54 in 10.0 mi South 26.5 mph 36.8 mph N/A   Overcast
6:53 AM 28.9 °F 14.3 °F 28.0 °F 96% 29.50 in 9.0 mi SSE 26.5 mph 33.4 mph N/A   Overcast
7:53 AM 28.0 °F 13.3 °F 27.0 °F 96% 29.49 in 7.0 mi South 25.3 mph 31.1 mph N/A   Overcast
8:46 AM 28.4 °F 14.4 °F 26.6 °F 93% 29.40 in 9.0 mi SSE 23.0 mph 28.8 mph N/A   Scattered Clouds
8:53 AM 28.9 °F 14.8 °F 27.0 °F 92% 29.45 in 10.0 mi South 24.2 mph 28.8 mph N/A   Partly Cloudy
9:53 AM 34.0 °F 23.0 °F 30.0 °F 85% 29.40 in 10.0 mi South 18.4 mph - N/A   Clear
10:45 AM 51.8 °F - 28.4 °F 41% 29.34 in 10.0 mi WSW 23.0 mph 32.2 mph N/A   Clear
10:53 AM 52.0 °F - 26.1 °F 37% 29.32 in 10.0 mi WSW 25.3 mph 34.5 mph N/A   Clear
11:53 AM 43.0 °F 32.0 °F 30.9 °F 62% 29.41 in 10.0 mi NW 33.4 mph 41.4 mph N/A   Scattered Clouds
12:04 PM 42.8 °F 31.6 °F 30.2 °F 61% 29.40 in 10.0 mi WNW 34.5 mph 41.4 mph N/A   Mostly Cloudy
12:53 PM 37.9 °F 26.1 °F 28.9 °F 70% 29.49 in 10.0 mi WNW 27.6 mph 42.6 mph N/A   Overcast
1:48 PM 37.4 °F 26.6 °F 30.2 °F 75% 29.45 in 10.0 mi NW 21.9 mph 35.7 mph N/A   Overcast
1:53 PM 37.9 °F 26.1 °F 30.0 °F 73% 29.49 in 6.0 mi NW 27.6 mph 33.4 mph 0.00 in Snow Light Snow
2:02 PM 35.6 °F 23.4 °F 30.2 °F 81% 29.46 in 1.8 mi NW 25.3 mph 34.5 mph 0.00 in Snow Light Snow
2:10 PM 35.6 °F 23.0 °F 30.2 °F 81% 29.46 in 2.5 mi NW 27.6 mph 36.8 mph 0.00 in Snow Light Snow
2:17 PM 35.6 °F 22.5 °F 28.4 °F 75% 29.46 in 4.0 mi NW 29.9 mph 40.3 mph 0.00 in Snow Light Snow
2:36 PM 33.8 °F 20.5 °F 26.6 °F 75% 29.48 in 2.5 mi NW 27.6 mph 43.7 mph 0.00 in Snow Light Snow
2:48 PM 30.2 °F 14.3 °F 26.6 °F 86% 29.49 in 1.5 mi NW 34.5 mph 42.6 mph 0.00 in Snow Light Snow
2:53 PM 30.9 °F 15.5 °F 27.0 °F 85% 29.55 in 1.0 mi NW 33.4 mph 47.2 mph 0.00 in Snow Light Snow
3:02 PM 30.2 °F 13.7 °F 26.6 °F 86% 29.51 in 0.8 mi NW 38.0 mph 50.6 mph 0.00 in Snow Light Snow
3:15 PM 30.2 °F 14.9 °F 26.6 °F 86% 29.50 in 0.5 mi NW 31.1 mph 46.0 mph 0.00 in Fog , Snow Snow
3:39 PM 28.4 °F - 26.6 °F 93% 29.53 in - North - - 0.00 in   Unknown
3:53 PM 30.0 °F 14.5 °F 26.1 °F 85% 29.61 in 0.8 mi NW 32.2 mph 43.7 mph 0.00 in Snow Light Snow
4:03 PM 30.2 °F 14.5 °F 24.8 °F 80% 29.55 in 1.5 mi NW 33.4 mph 43.7 mph 0.00 in Snow Light Snow
4:08 PM 30.2 °F 15.9 °F 24.8 °F 80% 29.54 in 3.0 mi NW 26.5 mph 43.7 mph 0.00 in   Unknown
4:17 PM 30.2 °F 14.5 °F 24.8 °F 80% 29.56 in 7.0 mi NW 33.4 mph 42.6 mph 0.01 in   Overcast
4:23 PM 30.2 °F 14.3 °F 24.8 °F 80% 29.56 in 1.5 mi NW 34.5 mph 43.7 mph 0.01 in Snow Light Snow
4:36 PM 30.2 °F 16.8 °F 26.6 °F 86% 29.57 in 3.0 mi NNW 23.0 mph 39.1 mph 0.01 in Snow Light Snow
4:53 PM 30.9 °F 16.7 °F 25.0 °F 79% 29.64 in 10.0 mi NNW 27.6 mph 39.1 mph 0.01 in   Overcast
5:53 PM 30.0 °F 16.3 °F 24.1 °F 79% 29.70 in 10.0 mi NW 24.2 mph 31.1 mph N/A   Overcast
6:02 PM 28.4 °F 14.7 °F 24.8 °F 86% 29.63 in 1.8 mi NNW 21.9 mph 31.1 mph 0.00 in Snow Light Snow
6:06 PM 28.4 °F 15.1 °F 26.6 °F 93% 29.63 in 1.2 mi NNW 20.7 mph 29.9 mph 0.00 in Snow Light Snow
6:17 PM 28.4 °F 16.2 °F 26.6 °F 93% 29.64 in 3.0 mi NNW 17.3 mph - 0.00 in Snow Light Snow
6:53 PM 28.9 °F 16.9 °F 25.0 °F 85% 29.75 in 10.0 mi NNW 17.3 mph - 0.00 in   Overcast
7:01 PM 28.4 °F 16.2 °F 24.8 °F 86% 29.68 in 10.0 mi NNW 17.3 mph 24.2 mph N/A   Overcast
7:11 PM 28.4 °F 15.8 °F 24.8 °F 86% 29.67 in 10.0 mi NNW 18.4 mph 23.0 mph N/A   Overcast
7:53 PM 28.0 °F 18.6 °F 24.1 °F 85% 29.79 in 10.0 mi NW 10.4 mph - N/A   Overcast
8:53 PM 27.0 °F 17.3 °F 21.9 °F 81% 29.81 in 10.0 mi NW 10.4 mph - N/A   Mostly Cloudy
9:53 PM 26.1 °F 15.0 °F 23.0 °F 88% 29.83 in 10.0 mi NW 12.7 mph - 0.00 in   Overcast
10:00 PM 26.6 °F 16.8 °F 23.0 °F 86% 29.76 in 10.0 mi WNW 10.4 mph - N/A   Overcast
10:21 PM 26.6 °F 14.7 °F 21.2 °F 80% 29.77 in 2.0 mi WNW 15.0 mph - 0.00 in Snow Light Snow
10:30 PM 24.8 °F 11.5 °F 21.2 °F 86% 29.78 in 1.2 mi NW 17.3 mph 24.2 mph 0.00 in Snow Light Snow
10:44 PM 24.8 °F 14.6 °F 21.2 °F 86% 29.78 in 3.0 mi NW 10.4 mph - 0.00 in Snow Light Snow
10:53 PM 23.0 °F 11.1 °F 21.0 °F 92% 29.82 in 8.0 mi WNW 12.7 mph - 0.00 in   Mostly Cloudy
11:23 PM 23.0 °F 10.6 °F 19.4 °F 86% 29.79 in 10.0 mi WNW 13.8 mph - N/A   Mostly Cloudy
11:45 PM 19.4 °F 8.6 °F 17.6 °F 93% 29.79 in 10.0 mi WNW 9.2 mph - N/A   Scattered Clouds
11:53 PM 19.9 °F 10.1 °F 17.1 °F 89% 29.86 in 10.0 mi WNW 8.1 mph - N/A   Partly Cloudy